This demonstration page uses our WeatherBlox Daily Observations layout. Learn more.

Left ArrowRight Arrow

39.51506, -84.39828

Hourly Observations for July 15, 2021

Temp ( °F °C ) Dew Point ( °F °C ) Humidity (%) Winds ( mph kmh ) Pressure ( in mb ) Visibility ( mi km ) Precip ( " mm )
12:15 am 00:15 Clear 68 20 N/A N/A N N/A 30.14 1021 10 16 N/A
12:35 am 00:35 Clear 68 20 N/A N/A N N/A 30.14 1021 10 16 0.01 0.25
12:55 am 00:55 Clear 68 20 N/A N/A N N/A 30.14 1021 10 16 0.01 0.25
1:15 am 01:15 Clear 68 20 N/A N/A N N/A 30.14 1021 7 11 N/A
1:35 am 01:35 Hazy 68 20 N/A N/A N N/A 30.13 1020 7 11 N/A
1:55 am 01:55 Hazy 68 20 N/A N/A N N/A 30.13 1020 5 8 N/A
2:15 am 02:15 Hazy 68 20 N/A N/A N N/A 30.13 1020 4 6 N/A
2:35 am 02:35 Hazy 68 20 N/A N/A N N/A 30.12 1020 4 6 N/A
2:55 am 02:55 Hazy 68 20 N/A N/A N N/A 30.12 1020 5 8 0.01 0.25
3:15 am 03:15 Hazy 68 20 N/A N/A N N/A 30.12 1020 4 6 N/A
3:35 am 03:35 Clear with Mist and Fog 66 19 N/A N/A N N/A 30.13 1020 4 6 N/A
3:55 am 03:55 Clear with Mist and Fog 66 19 N/A N/A N N/A 30.12 1020 4 6 N/A
4:15 am 04:15 Hazy 66 19 N/A N/A N N/A 30.12 1020 5 8 N/A
4:35 am 04:35 Clear with Mist and Fog 66 19 N/A N/A W 3 6 30.13 1020 3 5 N/A
4:55 am 04:55 Hazy 66 19 N/A N/A N N/A 30.12 1020 4 6 N/A
5:15 am 05:15 Hazy 66 19 N/A N/A N N/A 30.12 1020 4 6 N/A
5:35 am 05:35 Clear with Mist and Fog 66 19 N/A N/A N N/A 30.12 1020 4 6 N/A
5:55 am 05:55 Clear with Mist and Fog 66 19 N/A N/A N N/A 30.12 1020 2 3 N/A
6:15 am 06:15 Mostly Cloudy with Mist and Fog 66 19 N/A N/A N N/A 30.12 1020 1 2 N/A
6:35 am 06:35 Mostly Cloudy with Fog 66 19 N/A N/A N N/A 30.12 1020 0 0 0.01 0.25
6:55 am 06:55 Mostly Cloudy with Mist and Fog 66 19 N/A N/A N N/A 30.12 1020 1 1 0.01 0.25
7:15 am 07:15 Sunny with Mist and Fog 68 20 N/A N/A N N/A 30.11 1020 3 4 N/A
7:35 am 07:35 Sunny with Mist and Fog 70 21 N/A N/A N N/A 30.11 1020 3 5 0.01 0.25
7:55 am 07:55 Sunny with Mist and Fog 70 21 N/A N/A N N/A 30.11 1020 4 6 0.01 0.25
8:15 am 08:15 Hazy 72 22 N/A N/A SSW 5 7 30.11 1020 5 8 N/A
8:35 am 08:35 Hazy 73 23 N/A N/A SW 5 7 30.11 1020 7 11 N/A
8:55 am 08:55 Sunny 74 23.5 73 22.7 95 95 SW 6 9 30.11 1020 7 11 0.01 0.25
9:15 am 09:15 Sunny 76 24.4 73 22.5 89 89 SW 9 15 30.10 1019 10 16 N/A
9:35 am 09:35 Sunny 78 25.3 72 22.3 84 84 SSW 12 19 30.10 1019 10 16 0.01 0.25
9:55 am 09:55 Sunny 79 26.1 72 22.4 80 80 SW 9 15 30.10 1019 10 16 0.01 0.25
10:15 am 10:15 Sunny 80 26.6 73 22.7 79 79 SW 12 19 30.09 1019 10 16 0.01 0.25
10:35 am 10:35 Sunny 81 27.2 73 22.6 76 76 SW 14 22 30.08 1019 10 16 0.01 0.25
10:55 am 10:55 Sunny 82 27.9 73 22.7 73 73 SW 12 19 30.08 1019 10 16 0.01 0.25
11:15 am 11:15 Sunny 83 28.3 73 22.6 71 71 SW 16 26 30.08 1018 10 16 0.01 0.25
11:35 am 11:35 Sunny 83 28.6 73 22.8 71 71 SW 13 20 30.07 1018 10 16 0.01 0.25
11:55 am 11:55 Sunny 84 28.9 74 23.1 71 71 SSW 13 20 30.07 1018 10 16 0.01 0.25
12:15 pm 12:15 Sunny 84 28.9 74 23.1 71 71 SW 12 19 30.07 1018 10 16 0.01 0.25
12:35 pm 12:35 Partly Cloudy 85 29.2 74 23.1 70 70 WSW 10 17 30.06 1018 10 16 0.01 0.25
12:55 pm 12:55 Partly Cloudy 85 29.5 75 23.9 72 72 WSW 13 20 30.06 1018 10 16 0.01 0.25
1:15 pm 13:15 Partly Cloudy 86 30 75 23.9 70 70 SW 13 20 30.06 1018 10 16 N/A
1:35 pm 13:35 Partly Cloudy 86 29.8 74 23.5 69 69 SW 13 20 30.05 1018 10 16 N/A
1:55 pm 13:55 Sunny 87 30.5 75 23.8 67 67 SW 14 22 30.05 1018 10 16 0.01 0.25
2:15 pm 14:15 Sunny 87 30.7 74 23.6 66 66 WSW 10 17 30.04 1017 10 16 N/A
2:35 pm 14:35 Sunny 88 30.9 74 23.2 64 64 WSW 13 20 30.03 1017 10 16 N/A
2:55 pm 14:55 Partly Cloudy 87 30.6 74 23.1 64 64 WSW 8 13 30.03 1017 10 16 N/A
3:15 pm 15:15 Partly Cloudy 86 30.2 71 21.5 60 60 WSW 9 15 30.02 1017 10 16 N/A
3:35 pm 15:35 Mostly Cloudy 87 30.5 73 22.8 63 63 WSW 10 17 30.01 1016 10 16 N/A
3:55 pm 15:55 Partly Cloudy 89 31.4 71 21.5 56 56 WSW 13 20 30.00 1016 10 16 N/A
4:15 pm 16:15 Sunny 89 31.6 72 22.1 57 57 WSW 13 20 29.99 1016 10 16 0.01 0.25
4:35 pm 16:35 Sunny 88 31.1 72 22.1 59 59 SSW 13 20 29.98 1015 10 16 0.01 0.25
4:55 pm 16:55 Partly Cloudy 88 31.3 72 22.3 59 59 SW 15 24 29.98 1015 10 16 0.01 0.25
5:15 pm 17:15 Sunny 89 31.4 71 21.6 56 56 WSW 13 20 29.98 1015 10 16 N/A
5:35 pm 17:35 Sunny 89 31.6 69 20.8 53 53 WSW 10 17 29.98 1015 10 16 N/A
5:55 pm 17:55 Sunny 88 31.2 67 19.7 50 50 WSW 15 24 29.97 1015 10 16 N/A
6:15 pm 18:15 Sunny 88 31.2 68 20.1 52 52 WSW 14 22 29.97 1015 10 16 N/A
6:35 pm 18:35 Sunny 88 31 69 20.6 54 54 WSW 10 17 29.97 1015 10 16 N/A
6:55 pm 18:55 Sunny 87 30.8 69 20.8 55 55 WSW 10 17 29.97 1015 10 16 N/A
7:15 pm 19:15 Sunny 87 30.4 70 21 57 57 WSW 8 13 29.97 1015 10 16 N/A
7:35 pm 19:35 Sunny 85 29.5 71 21.5 62 62 WSW 8 13 29.97 1015 10 16 N/A
7:55 pm 19:55 Sunny 83 28.5 72 22 68 68 W 7 11 29.98 1015 10 16 N/A
8:15 pm 20:15 Sunny 81 27.4 73 22.7 76 76 SW 6 9 29.98 1015 10 16 N/A
8:35 pm 20:35 Sunny 79 26.2 74 23.5 85 85 WSW 5 7 29.98 1015 10 16 N/A
8:55 pm 20:55 Sunny 79 26.3 74 23.4 84 84 W 3 6 29.98 1015 10 16 N/A
9:15 pm 21:15 Clear 76 24.7 76 24.2 97 97 N N/A 29.99 1016 10 16 N/A
9:35 pm 21:35 Cloudy 78 25.4 72 22 82 82 NW 8 13 30.00 1016 10 16 N/A
9:55 pm 21:55 Cloudy 76 24.5 72 22 86 86 NW 7 11 30.01 1016 10 16 N/A
10:15 pm 22:15 Cloudy 76 24.5 71 21.9 85 85 WNW 7 11 30.02 1017 10 16 N/A
10:35 pm 22:35 Mostly Cloudy 76 24.3 71 21.9 87 87 SE 3 6 30.02 1017 10 16 N/A
10:55 pm 22:55 Clear 75 24 71 21.7 87 87 NNE 3 6 30.03 1017 10 16 N/A
11:15 pm 23:15 Clear 74 23.4 72 22.2 93 93 N N/A 30.03 1017 10 16 N/A
11:35 pm 23:35 Mostly Cloudy 74 23.2 72 22.3 95 95 WNW 9 15 30.05 1018 10 16 N/A
11:55 pm 23:55 Mostly Cloudy 73 22.9 73 22.7 99 99 N N/A 30.05 1018 10 16 N/A

Powered by AerisWeather